Theta_e
311 311 311 310 310 310 310 309 309 309 309 304 302 306 311 305 300 309 311 309 312 306 290 293 292 285 283 285 289 290 288 286 288 287 288 285 290 291 288 293 289 286 287 284 284 285 287 286 287 288 285 281 284 288 288 288 289 287 284 287 284 289 284 283 282 281 281 282 282 283 282 282 282 281 281 282 282 283 281 282 281 282 278 278 278 276 282
311 311 311 311 310 310 309 309 309 309 308 302 301 306 302 305 304 308 313 310 312 304 291 292 288 285 282 285 286 290 287 288 283 284 288 289 286 293 291 290 289 287 287 286 284 284 285 289 288 287 287 285 288 288 288 284 284 285 285 283 286 284 283 283 281 282 281 282 281 280 279 280 281 282 282 283 283 282 284 283 283 280 280 281 280 276 280
311 311 311 311 310 310 310 309 309 309 309 305 301 304 305 303 303 299 306 310 308 300 295 290 288 285 282 282 282 284 287 288 288 289 287 291 288 289 290 291 289 284 284 280 282 280 284 285 286 287 286 284 287 288 287 286 285 288 289 289 285 284 283 283 281 277 274 275 279 282 284 281 281 284 283 285 283 283 281 280 280 276 278 281 278 279 286
311 311 311 311 310 310 310 309 309 309 309 306 305 304 305 297 289 295 301 303 300 294 295 293 289 285 282 283 285 287 285 288 289 288 288 289 290 286 290 287 291 286 285 282 281 281 281 283 283 284 286 283 284 284 287 288 286 287 287 287 284 283 282 282 282 281 281 283 284 286 286 284 281 282 282 281 283 283 284 282 281 279 279 280 283 284 286
311 311 311 311 310 310 309 309 309 309 309 305 301 307 302 298 293 290 292 293 292 290 292 289 292 289 291 289 285 284 287 287 286 285 283 288 285 284 289 289 287 285 288 284 282 280 281 280 279 281 286 283 283 283 286 287 288 288 288 287 283 282 281 282 280 282 284 285 286 286 286 283 283 283 282 282 282 283 282 281 280 282 282 280 284 287 285
312 311 311 311 310 310 309 309 309 309 308 306 303 298 296 295 290 292 287 289 290 291 290 291 289 290 290 286 288 286 286 286 284 287 288 285 283 284 286 286 288 290 290 287 284 281 280 279 282 282 285 282 282 283 283 283 287 286 285 286 282 282 280 283 282 281 283 284 284 285 284 283 283 283 283 282 283 282 281 282 285 285 281 281 283 284 283
312 311 311 311 310 310 309 309 308 309 307 306 302 303 294 295 289 289 287 291 286 288 290 292 294 290 290 286 288 285 285 285 289 285 284 284 284 286 284 285 288 290 291 288 285 281 284 283 281 281 282 283 283 283 283 284 285 283 282 280 279 281 281 280 281 279 281 282 283 283 283 283 283 283 283 283 283 283 283 284 284 284 284 286 287 286 286
312 311 311 311 311 310 309 308 308 308 308 307 305 298 297 291 293 289 288 289 285 288 288 290 293 288 289 286 287 289 286 287 286 287 283 282 283 288 283 285 290 291 290 288 286 286 289 287 285 286 283 282 284 284 286 281 281 282 280 280 278 280 280 283 278 276 279 282 281 281 282 282 280 281 282 283 284 284 284 283 284 283 283 285 286 285 285
312 311 311 311 310 310 309 308 308 308 307 307 304 292 297 294 293 296 292 288 287 288 289 289 289 288 285 285 289 288 289 289 290 288 292 290 285 283 286 290 286 287 289 288 288 293 291 292 291 290 287 286 287 285 285 283 280 281 279 280 278 279 280 279 278 276 277 278 281 281 281 280 279 280 281 282 282 279 282 283 284 282 282 283 282 281 283
311 311 311 311 310 310 309 308 308 308 307 306 302 292 297 298 296 296 296 291 288 286 287 287 285 287 291 293 290 289 292 293 290 286 291 290 291 290 291 290 287 286 285 287 292 292 291 291 290 290 288 289 286 286 287 286 282 281 281 281 278 278 280 279 280 277 276 277 279 280 278 276 278 280 282 283 283 284 283 285 284 286 286 281 280 281 288
311 311 311 310 310 310 309 308 308 308 305 300 300 294 294 299 298 297 297 289 286 287 288 287 286 293 290 292 288 285 286 286 290 288 286 288 288 286 289 290 286 286 284 289 288 289 290 290 289 289 288 286 284 285 286 286 284 284 283 278 280 278 279 281 281 276 277 276 276 278 276 274 277 287 288 287 283 283 282 282 284 286 287 285 287 288 289
311 311 311 310 310 309 309 308 308 308 306 304 304 301 300 299 299 299 293 286 287 284 285 286 288 291 292 290 290 288 286 286 288 289 286 286 286 286 288 288 286 284 286 285 287 289 291 291 290 288 286 284 283 283 283 282 282 283 282 281 279 278 278 280 281 278 277 277 277 278 273 276 284 283 285 287 288 287 285 286 286 287 288 289 288 288 289
311 311 311 311 310 309 309 308 308 307 308 304 304 300 297 297 299 296 293 289 287 284 284 285 285 287 287 285 287 286 284 285 287 288 287 287 285 286 285 286 287 287 286 287 288 288 285 282 282 282 279 282 281 281 277 277 277 280 281 281 280 279 278 281 279 279 279 276 277 271 273 282 286 287 286 286 283 282 284 282 286 288 289 289 288 289 290
311 311 311 311 310 310 309 309 308 308 308 305 301 298 297 296 298 295 293 288 288 288 287 285 286 284 285 286 287 285 286 285 285 287 285 285 286 285 286 287 285 284 285 284 283 284 283 283 283 282 279 277 277 277 274 274 274 275 277 279 280 279 281 282 279 279 273 276 275 278 281 284 285 284 282 282 281 280 281 278 280 287 289 289 289 289 290
311 311 311 311 310 310 309 309 308 308 307 305 304 301 300 299 297 297 294 293 287 288 288 284 285 287 288 287 287 284 285 285 284 283 284 286 284 284 283 285 285 285 284 283 284 283 283 283 279 278 280 277 275 276 276 274 273 275 276 276 278 278 278 280 277 277 280 276 274 274 275 271 278 284 285 288 288 288 287 282 280 288 290 290 289 289 290
310 310 310 310 310 310 310 309 309 308 308 306 306 305 301 298 298 298 297 291 289 283 288 294 295 288 287 287 288 287 285 282 284 283 282 284 283 283 284 285 285 285 283 283 283 284 283 278 275 277 276 276 275 274 275 274 273 275 275 275 276 276 277 276 277 278 276 276 272 271 270 274 282 285 286 287 285 287 285 283 281 288 289 291 290 290 289
310 310 310 310 310 310 310 310 309 308 308 305 305 307 305 299 300 299 297 292 289 286 291 296 296 292 286 283 285 282 286 284 285 284 282 280 282 283 282 284 284 284 284 283 284 282 281 279 279 279 279 274 276 275 274 273 273 272 274 275 274 275 277 277 275 272 276 274 274 274 276 276 283 284 285 285 284 285 284 277 276 287 292 293 290 291 290
310 310 310 310 310 310 310 310 310 309 308 307 305 306 305 299 299 300 299 293 286 286 290 295 293 286 285 287 284 288 288 284 285 284 282 280 280 280 280 283 282 285 286 282 282 281 278 279 277 276 277 276 274 275 275 275 272 273 270 273 273 274 275 277 276 276 277 280 276 276 277 284 288 286 285 283 285 284 277 275 281 287 290 292 292 292 293
310 310 310 310 310 310 310 310 310 310 309 307 306 307 307 302 301 299 298 292 288 285 293 289 291 293 293 292 291 289 290 291 288 284 282 281 281 282 282 283 287 281 284 282 282 279 279 277 280 279 278 276 274 277 276 275 275 275 274 273 273 274 274 276 274 275 276 277 275 276 278 283 289 287 287 285 284 278 276 285 289 291 291 292 293 293 293
310 310 310 310 310 310 310 310 310 310 309 309 306 305 305 302 301 299 298 292 290 287 291 288 291 291 292 293 285 285 285 287 286 286 283 282 282 283 283 280 284 283 281 281 278 281 280 278 279 279 277 278 277 278 275 274 277 276 274 276 277 278 275 273 273 275 275 275 274 273 272 281 289 286 284 285 282 282 288 286 288 291 292 291 291 292 291
310 310 310 310 310 310 310 310 310 310 310 309 308 305 304 302 301 298 299 298 293 288 293 293 294 294 296 293 295 296 291 288 287 283 286 284 285 285 279 281 284 282 281 281 278 279 280 278 278 277 280 281 282 277 275 277 276 279 279 278 278 282 277 275 275 279 274 274 272 275 282 284 289 289 283 283 288 290 290 290 290 290 290 289 289 289 289
310 310 310 310 310 310 310 310 309 310 310 309 308 307 304 304 300 300 299 300 296 290 294 298 297 295 298 299 299 297 295 296 298 296 287 283 285 285 283 282 283 283 285 284 283 281 281 282 283 280 277 278 281 278 277 277 276 277 275 279 277 283 282 283 280 281 280 279 281 284 284 288 291 292 291 289 291 291 290 289 289 289 289 290 289 289 290
310 309 310 310 310 310 310 309 309 309 309 310 308 307 305 303 299 299 299 299 300 299 300 299 297 297 299 300 301 301 301 300 299 294 294 287 283 284 283 283 283 287 284 285 284 284 283 282 280 282 281 282 280 277 276 279 278 277 277 282 282 283 285 282 283 282 284 288 288 291 288 287 290 292 292 291 291 293 289 289 289 290 290 290 289 288 288
310 309 309 309 310 310 310 309 309 309 309 309 309 307 306 308 300 300 301 298 292 291 296 300 294 292 297 299 303 302 300 299 299 298 297 295 284 284 286 288 287 284 283 284 288 285 285 284 283 282 278 282 281 280 277 277 279 279 279 280 281 282 283 284 280 281 281 280 286 288 289 289 289 290 291 291 290 291 291 290 289 289 287 287 287 287 286
310 309 309 309 309 310 309 309 309 309 310 309 309 310 309 302 301 304 299 291 289 290 288 289 293 300 301 301 298 299 300 302 300 299 298 296 293 288 286 289 289 288 285 286 283 284 284 281 281 279 276 282 284 280 283 279 281 282 281 283 281 282 284 282 283 282 282 284 287 288 289 290 290 290 289 289 290 289 288 288 287 287 286 285 284 284 283
310 309 309 309 309 309 309 309 309 309 309 309 309 307 305 305 304 305 305 298 292 290 288 289 292 298 298 298 298 301 303 302 301 300 299 299 298 296 292 287 287 289 285 285 284 284 283 282 283 281 280 281 287 281 281 283 283 283 281 284 285 284 284 278 281 282 285 286 287 288 289 289 289 288 286 287 288 288 286 286 285 286 285 283 282 282 281
309 309 309 309 309 309 309 309 309 309 309 309 308 308 308 308 307 304 303 299 294 291 290 288 292 293 296 296 301 299 300 301 300 300 299 299 299 298 295 290 288 285 286 284 285 284 285 283 282 281 283 282 283 281 284 281 282 282 283 283 284 283 281 282 281 281 281 282 284 286 282 283 285 284 285 285 287 286 284 283 281 281 281 282 280 278 278
309 309 309 309 309 309 309 309 309 309 309 309 309 308 309 308 307 307 308 307 301 294 291 289 290 291 297 293 299 301 301 301 300 299 298 298 298 298 297 295 292 286 283 284 282 281 280 281 281 283 284 282 283 282 283 282 281 282 283 284 285 282 285 283 282 282 282 286 286 288 288 286 282 283 284 285 284 283 280 279 278 278 279 279 278 277 275
309 309 309 309 309 309 309 309 309 309 309 309 308 307 307 308 309 307 308 309 307 300 296 295 292 291 292 293 300 299 300 300 299 299 298 298 297 297 296 296 294 293 288 286 286 284 283 283 284 282 282 284 283 281 283 278 280 279 284 286 287 288 289 288 289 288 288 285 283 286 286 284 282 282 282 282 282 280 278 278 278 278 277 277 276 275 274
309 309 309 309 308 308 308 308 309 309 309 309 306 298 296 296 308 307 307 308 308 303 295 291 289 291 292 292 292 298 298 299 299 298 298 297 296 296 296 295 294 295 291 288 288 285 287 285 285 285 285 288 285 285 283 283 283 285 289 290 290 290 288 287 286 285 284 285 286 286 284 280 279 278 278 279 280 279 277 276 276 276 277 277 276 276 276
309 309 309 309 308 308 308 308 309 309 308 306 301 292 291 291 297 308 307 307 308 302 291 292 291 293 290 290 296 298 297 297 297 297 297 297 297 296 297 297 295 296 289 289 287 287 288 285 286 286 287 288 289 284 284 285 284 287 289 286 285 285 285 284 284 284 284 284 285 282 281 281 281 278 276 275 277 277 276 275 275 276 275 274 274 274 273
304 306 307 308 308 308 308 309 309 308 308 305 300 298 293 294 303 307 307 307 307 298 292 291 289 289 288 291 289 289 296 297 296 292 291 296 293 294 292 296 290 295 292 289 289 287 286 288 287 287 285 289 290 284 285 284 284 286 287 282 282 283 283 282 282 282 282 284 285 282 278 274 276 275 273 274 275 276 274 274 274 274 274 273 273 273 272
300 301 301 302 302 304 307 308 308 308 307 308 305 303 303 303 302 304 306 307 303 293 291 291 288 289 288 287 288 287 290 290 289 291 288 293 289 291 287 290 288 288 294 290 285 286 287 288 288 286 287 288 285 283 283 283 286 286 278 278 279 280 280 280 280 281 281 280 282 282 278 273 272 273 273 273 273 273 274 274 273 273 273 272 271 271 271
299 299 300 300 301 302 302 303 306 308 308 304 299 302 300 302 304 305 307 303 292 290 290 289 286 288 287 292 287 289 295 290 287 290 286 290 288 289 286 287 287 287 287 288 287 288 287 286 285 286 286 285 286 282 281 284 285 279 277 276 276 278 279 278 279 278 278 276 276 276 275 274 274 274 273 272 272 272 273 273 273 272 271 270 270 270 270
298 299 299 300 301 302 303 304 303 302 299 300 298 299 300 301 303 306 304 297 290 289 289 288 288 284 286 286 286 288 291 288 286 289 288 288 290 287 287 285 287 285 285 291 284 287 287 286 288 285 283 286 284 281 283 286 276 275 275 274 274 275 276 276 275 277 277 276 275 275 275 274 273 272 271 271 271 271 270 270 271 270 269 269 269 269 269
297 298 299 299 298 299 300 299 299 293 289 291 296 299 299 301 303 305 303 300 291 286 286 286 288 284 288 284 285 287 293 287 288 287 287 287 286 288 287 286 283 286 288 287 284 287 285 289 288 281 288 282 280 285 278 274 273 273 272 272 272 272 272 273 274 276 276 276 275 274 274 273 272 271 271 271 270 270 269 268 268 269 268 268 268 268 268
296 297 298 297 295 289 288 290 296 295 292 297 297 299 300 300 292 294 291 294 292 291 287 286 285 285 288 286 289 287 292 283 288 285 287 285 284 287 285 285 283 287 285 284 285 284 287 293 287 284 285 284 281 270 271 272 271 271 271 272 272 273 272 273 273 276 274 274 274 274 273 272 271 271 270 270 270 270 268 267 267 266 265 266 266 266 266
295 295 292 288 288 286 286 287 290 295 296 297 299 293 289 292 286 288 288 287 288 292 289 289 284 288 288 287 285 290 289 285 290 284 286 287 284 283 286 284 285 288 278 282 284 290 286 286 285 284 284 271 269 271 271 271 271 271 271 272 272 272 272 272 273 275 273 272 271 272 272 272 271 271 270 269 269 269 268 268 267 266 266 265 265 266 265
292 289 287 287 286 285 286 287 296 296 297 297 291 286 284 288 285 285 284 286 288 286 287 288 285 289 286 286 287 294 289 287 285 286 284 288 284 279 286 279 284 287 279 284 284 293 281 284 285 283 283 273 269 269 270 270 270 271 270 271 271 272 272 271 271 273 273 272 272 272 272 271 270 270 270 269 269 269 269 268 267 266 265 264 264 264 264
286 285 285 286 284 285 292 294 295 295 293 287 288 288 282 286 283 279 289 281 282 286 288 283 288 288 289 287 287 286 290 287 285 284 286 285 293 283 285 286 284 285 277 282 283 290 282 278 285 283 280 273 267 269 269 270 269 270 270 270 271 271 271 271 270 271 270 269 269 269 269 269 269 269 268 268 267 266 266 265 266 266 264 262 263 262 262
286 285 285 283 286 286 288 292 289 287 286 285 285 284 284 280 285 284 285 280 282 283 289 286 289 286 288 290 289 286 289 289 287 288 287 284 291 287 283 283 289 283 279 281 286 287 284 282 282 283 276 268 266 268 268 268 268 268 269 269 270 270 270 270 271 271 270 269 269 268 268 268 267 267 267 266 266 265 264 263 263 264 263 262 261 261 262
287 286 287 289 286 286 287 287 286 285 284 285 282 277 283 281 285 281 284 280 282 286 284 287 283 286 286 289 287 289 287 288 287 288 286 282 289 287 282 285 284 281 277 285 287 284 283 280 280 278 264 265 267 267 267 266 267 266 267 268 268 269 269 268 268 268 270 269 269 268 267 266 266 266 265 265 264 263 263 262 261 262 262 262 261 261 261
292 290 289 285 286 284 285 281 283 284 277 280 278 272 279 278 280 281 280 285 286 285 285 288 284 289 287 289 286 289 287 291 287 286 286 282 289 288 282 283 283 278 282 286 283 281 280 278 280 270 262 264 265 265 266 266 266 266 266 266 266 267 267 267 266 266 266 266 266 267 267 266 266 265 265 264 263 263 263 263 262 261 262 261 259 260 259
288 286 283 283 282 279 285 271 282 276 270 277 278 272 276 276 276 281 276 280 285 281 283 283 284 285 282 289 286 286 288 287 290 287 285 286 285 281 283 279 280 285 285 276 278 278 279 268 267 265 265 263 264 264 265 265 265 264 264 264 265 265 265 266 266 264 264 265 265 265 265 264 264 264 263 263 263 262 261 262 262 261 261 260 258 258 258
283 281 282 279 276 278 281 268 283 275 271 276 280 275 279 274 278 282 277 284 281 279 283 281 282 283 283 286 286 284 287 284 289 286 280 286 279 281 281 278 284 283 280 276 278 271 270 266 266 263 263 263 263 263 264 264 265 264 263 263 263 263 263 263 263 263 263 263 263 263 262 263 262 262 262 262 261 262 260 259 261 260 260 258 256 257 257
280 277 279 274 270 277 277 269 278 267 272 278 277 279 279 279 280 276 281 282 279 281 279 280 281 281 280 284 283 281 286 284 283 283 285 284 279 275 283 283 280 275 275 279 275 273 271 267 264 264 265 264 263 263 263 263 264 264 263 261 262 261 261 261 261 262 262 261 261 261 261 262 261 261 260 260 260 261 261 260 260 259 257 255 255 256 256
279 281 277 275 273 272 281 269 273 277 278 279 280 281 279 279 279 279 280 281 278 281 280 281 280 279 279 279 282 280 283 284 281 282 285 277 277 281 284 279 273 277 275 272 274 269 266 268 267 266 264 263 262 262 261 261 262 262 262 262 261 261 261 260 260 259 260 260 260 260 260 260 260 260 260 258 258 260 260 258 258 258 255 254 255 255 255
273 278 281 269 268 274 273 272 280 276 280 279 280 281 281 281 279 277 280 280 279 281 279 279 276 278 279 282 283 274 278 283 280 279 285 279 282 278 274 277 273 270 270 269 267 270 266 267 264 263 263 263 261 260 260 260 260 260 260 261 261 260 260 259 259 259 259 258 258 258 258 258 258 258 257 257 256 258 259 257 258 256 255 254 254 254 253
280 278 271 270 275 273 272 277 277 274 278 278 279 280 280 278 278 279 279 280 278 277 280 277 274 279 272 278 276 275 275 280 277 274 283 276 275 273 275 272 273 271 272 271 267 269 266 264 263 262 261 261 261 260 260 260 259 259 259 259 259 259 259 258 258 258 258 257 257 257 256 257 257 256 256 255 256 256 258 257 256 254 254 253 252 252 252
277 274 279 272 273 274 276 276 275 272 277 276 277 277 278 276 276 278 282 277 278 279 278 279 281 276 272 278 268 273 274 277 276 275 275 269 273 274 272 265 270 269 267 271 267 264 262 261 261 260 260 260 260 259 259 259 259 258 259 259 259 258 258 257 257 257 256 256 256 256 255 256 255 255 254 254 255 256 255 255 254 252 252 252 252 250 250
281 277 274 279 275 272 277 267 270 273 274 274 275 275 277 273 277 276 281 278 276 276 275 271 274 275 272 273 272 268 269 278 269 266 273 272 275 270 268 269 269 271 268 263 262 262 261 262 260 259 259 258 258 258 258 257 257 257 257 256 257 257 256 256 255 256 255 256 256 255 254 254 255 254 253 254 253 253 253 254 253 250 249 249 249 249 247
276 270 271 276 278 276 275 275 275 273 274 276 275 276 278 272 277 278 281 278 275 273 269 276 273 269 272 267 270 274 275 271 265 270 270 271 275 266 267 270 269 265 263 260 261 261 261 261 261 259 259 258 257 256 256 256 256 256 256 256 256 255 255 255 254 255 254 254 254 254 253 254 253 252 253 252 251 250 249 250 251 250 248 248 248 248 247
Wind_Speed
15 15 17 17 18 19 19 20 20 22 22 6 5 3 1 0 0 1 1 1 0 3 3 1 1 2 0 2 0 0 0 0 2 1 0 0 2 1 0 1 1 2 1 1 1 0 1 2 0 0 1 0 0 2 3 4 4 0 1 1 0 2 0 0 2 1 1 0 1 1 2 1 1 1 1 1 0 1 1 1 1 1 1 0 1 2 9
14 15 16 17 18 19 19 19 19 19 19 4 5 2 1 1 1 1 0 2 1 2 1 1 1 1 0 0 0 1 0 0 0 0 0 0 0 1 0 0 2 1 1 1 2 1 1 3 1 0 0 0 1 2 2 4 1 1 1 2 1 1 2 2 2 2 1 1 0 1 0 0 1 1 2 2 2 2 1 1 0 1 6 7 5 6 4
14 14 16 17 18 18 18 18 18 18 18 6 1 2 0 0 0 0 1 1 2 1 0 2 4 1 2 1 1 0 0 2 0 0 0 0 0 0 0 0 0 1 1 1 1 1 1 0 1 1 1 1 1 1 3 2 1 3 2 0 1 0 1 1 1 0 1 1 1 1 0 2 2 0 2 1 4 3 2 0 0 2 3 6 3 6 8
13 13 14 16 17 18 18 18 18 18 19 12 1 2 1 0 0 1 1 4 4 3 1 2 4 4 2 1 1 1 1 1 2 1 0 0 1 1 1 1 1 2 1 2 3 3 2 1 1 1 0 0 0 1 2 3 2 1 1 1 0 0 1 1 3 3 6 2 1 0 1 1 1 2 3 4 2 3 1 2 1 7 3 6 9 6 11
12 13 14 15 16 17 18 18 18 17 18 9 1 2 1 0 1 0 0 2 4 3 3 1 1 2 3 1 3 1 1 2 1 2 0 0 0 0 0 1 2 1 0 0 1 0 3 2 0 2 1 1 1 2 3 2 3 1 1 1 0 0 1 5 5 6 7 0 1 2 3 3 3 3 4 5 5 5 6 8 8 3 1 12 4 12 9
9 10 11 13 15 16 18 18 18 18 16 9 1 1 2 1 1 1 1 1 1 0 1 1 1 0 0 1 0 3 2 1 1 0 0 0 1 0 0 0 2 2 1 3 0 1 1 1 2 1 0 2 0 1 1 1 2 1 0 0 1 1 2 2 1 4 3 4 3 2 2 5 4 5 5 7 8 7 11 11 13 2 5 13 3 2 5
11 11 11 12 13 16 17 18 18 18 18 8 2 1 1 1 2 1 0 1 1 0 1 1 1 3 1 1 1 1 2 1 1 1 0 1 0 2 1 2 6 5 1 1 0 2 0 2 1 3 2 1 2 0 1 0 3 0 0 1 0 1 3 0 0 4 5 8 9 6 7 3 2 6 7 6 8 13 14 14 10 10 11 12 13 11 15
10 10 11 12 12 14 16 17 18 19 20 5 1 1 1 1 1 0 1 2 2 1 1 0 0 1 1 0 2 3 3 3 0 0 2 1 1 1 1 2 2 3 3 1 1 3 1 1 1 2 3 0 1 3 3 2 1 1 1 1 1 1 3 4 0 2 5 1 3 1 0 1 5 8 8 9 11 9 11 8 9 6 9 17 19 14 18
9 10 10 11 12 13 15 16 17 19 15 1 1 0 1 1 0 0 4 1 0 0 0 0 1 0 1 0 0 1 2 2 4 1 1 0 4 4 3 2 2 2 1 2 3 3 1 2 1 3 3 1 2 2 1 7 5 2 2 1 2 1 2 1 0 2 4 1 0 1 3 4 7 11 12 12 9 7 7 9 9 7 14 8 3 7 13
8 9 9 9 10 12 13 14 16 18 14 1 1 0 0 0 0 0 0 0 1 0 1 0 1 0 0 1 1 1 1 1 4 0 2 3 3 1 1 0 2 0 0 5 2 1 2 2 1 2 2 3 2 3 1 4 8 6 4 2 3 4 2 1 1 0 4 1 1 2 2 5 7 11 13 14 11 10 3 7 5 12 9 4 7 11 13
8 8 7 8 9 10 12 13 14 16 9 4 3 0 1 1 1 0 1 1 1 0 0 1 1 1 1 1 1 1 0 0 0 1 1 1 0 1 1 0 2 1 3 1 1 2 2 2 1 3 6 5 4 3 4 8 4 2 7 3 1 4 1 1 0 2 1 1 3 1 3 6 8 1 4 6 6 11 12 8 12 14 10 10 10 14 7
7 6 7 7 7 9 10 11 12 14 8 3 1 1 1 2 3 0 0 1 1 1 0 2 3 1 2 1 1 2 2 3 2 1 2 1 0 1 0 0 1 2 0 3 3 1 1 0 4 4 7 6 6 7 9 5 3 5 2 2 3 4 3 2 0 1 2 1 5 6 7 10 3 2 3 1 4 9 14 10 9 8 12 16 14 14 13
7 7 6 7 7 7 8 9 11 12 11 5 3 1 2 1 0 0 0 1 2 3 1 2 1 1 1 3 2 1 1 2 1 3 2 2 1 1 1 1 1 1 1 2 2 1 1 1 0 1 0 2 2 7 10 8 5 7 3 4 3 5 5 2 1 2 2 2 0 1 7 3 4 6 2 0 4 2 1 6 12 14 15 16 15 17 15
9 8 8 7 6 7 7 8 9 10 10 7 3 2 1 1 1 1 0 1 1 2 1 1 1 1 2 3 4 2 2 1 0 0 1 1 1 2 1 2 0 1 2 1 0 0 0 0 1 1 1 1 0 1 1 2 3 4 5 4 4 0 1 1 2 2 2 3 4 9 6 12 9 2 1 3 4 4 5 3 6 4 6 8 10 13 12
9 7 6 5 5 6 6 7 7 8 7 7 1 0 0 1 0 1 1 0 1 0 2 4 3 5 5 3 5 4 1 3 3 0 1 0 2 1 0 0 0 0 1 1 1 0 0 0 0 1 1 1 2 2 1 0 3 1 2 2 2 2 4 1 3 3 5 3 4 4 1 4 6 3 1 0 0 2 1 1 7 8 12 7 8 9 11
9 7 7 7 7 8 8 7 7 6 7 7 3 0 1 0 0 1 1 0 0 2 4 3 3 4 4 2 3 4 3 4 3 2 1 1 1 1 1 0 0 0 1 0 0 0 1 2 3 2 4 3 1 1 2 1 1 2 1 1 1 3 1 0 3 2 2 1 3 4 3 6 3 2 2 1 1 1 1 3 8 5 2 2 9 7 6
10 8 8 8 9 8 8 7 6 6 5 3 2 4 0 0 1 2 1 1 1 4 1 1 3 4 7 2 2 1 1 2 5 2 2 2 1 1 0 1 1 0 1 1 0 1 1 1 1 1 2 3 0 2 1 0 1 2 6 4 7 2 0 1 1 3 4 2 3 8 4 4 3 4 1 3 2 3 1 6 6 2 1 0 3 0 1
11 10 8 8 8 8 8 7 8 7 5 5 3 3 1 1 1 0 1 0 1 3 2 1 3 2 3 3 3 1 2 2 2 2 3 0 1 1 1 1 0 1 1 1 2 1 2 3 5 3 5 1 0 3 5 5 3 4 4 4 3 1 2 4 10 4 4 6 7 4 6 3 3 6 4 4 3 1 1 6 10 2 1 0 2 0 1
11 10 10 9 9 8 8 8 6 6 6 4 4 5 0 1 0 0 1 1 1 3 0 1 1 0 0 2 2 1 1 2 2 4 2 1 2 3 4 1 1 0 0 1 2 2 3 3 0 1 3 1 0 6 1 1 4 1 5 3 1 1 1 1 2 4 8 6 7 9 5 5 8 0 10 5 2 2 8 8 2 3 1 1 1 1 1
12 12 11 11 10 10 9 8 7 6 6 4 2 3 1 1 2 1 1 1 0 2 2 3 4 4 3 3 4 2 1 0 1 2 4 4 0 4 2 1 2 2 1 0 1 2 3 5 5 1 3 4 5 3 1 4 3 8 5 5 5 9 7 6 6 3 1 3 4 5 6 4 7 9 3 0 3 8 5 2 1 1 2 3 2 1 3
14 14 13 12 12 11 11 10 9 9 8 8 5 2 1 2 1 1 1 1 1 2 2 1 1 3 2 4 3 2 5 4 5 3 2 3 8 5 3 6 9 6 7 7 8 4 4 3 4 3 2 3 3 2 3 1 4 6 5 5 5 6 3 2 4 6 6 6 6 8 10 3 7 13 7 6 11 6 1 4 6 3 4 5 5 4 4
15 15 15 14 13 13 13 13 13 12 11 11 9 2 3 1 1 1 2 1 2 3 1 1 0 3 4 4 4 3 3 2 1 1 6 3 4 5 1 2 5 4 2 3 0 1 1 1 0 1 3 2 1 5 1 1 6 1 2 1 4 8 7 4 4 5 6 8 10 8 4 5 10 10 8 5 10 8 4 3 3 5 5 2 5 5 7
16 15 15 15 15 15 14 14 14 14 13 12 9 4 6 2 1 1 1 1 2 3 2 3 2 4 4 7 9 9 8 4 2 2 2 6 2 4 3 3 2 1 0 1 5 3 3 5 6 3 2 4 7 4 4 6 4 3 5 8 6 2 3 1 1 5 4 9 7 3 1 3 7 10 10 5 3 2 2 4 6 4 5 9 5 6 8
18 17 17 17 16 15 15 16 16 15 15 15 12 5 6 4 5 4 1 2 1 4 6 6 4 5 7 7 1 4 6 6 7 5 3 3 5 2 1 3 1 1 1 2 2 2 1 1 2 1 3 3 3 4 5 6 9 3 2 4 3 5 2 1 4 1 2 9 1 10 12 6 8 6 4 6 5 6 6 7 7 9 10 10 10 10 10
19 19 19 19 18 18 16 16 16 16 15 17 15 9 2 2 4 6 5 2 1 2 4 2 6 9 1 1 2 0 6 7 5 6 5 5 5 6 5 2 5 6 6 5 1 2 1 2 1 1 5 6 5 6 4 4 8 6 8 7 3 3 4 5 7 6 8 13 2 0 2 6 2 1 4 5 9 11 13 10 8 10 12 13 10 11 12
21 20 20 20 19 19 19 18 17 16 16 17 15 10 8 7 7 7 2 2 2 2 3 6 4 2 0 0 4 4 4 7 6 8 9 10 9 9 3 1 0 3 4 2 3 5 3 1 3 3 4 6 6 5 5 6 6 2 5 8 4 3 5 3 3 6 10 8 9 9 9 13 6 8 11 7 6 7 11 12 12 10 12 14 15 14 12
21 21 21 21 20 20 20 19 18 18 18 18 13 9 8 7 8 11 9 7 2 5 3 6 4 1 1 6 3 3 3 6 5 7 7 7 8 7 4 4 3 2 3 1 1 1 1 2 3 7 5 6 1 3 1 3 4 7 11 4 5 4 7 2 1 9 10 12 5 2 5 5 2 8 9 9 7 8 10 11 14 13 11 10 13 14 14
22 22 22 21 22 21 21 21 20 19 19 18 13 10 9 9 8 10 10 7 10 8 2 3 3 3 2 3 4 5 5 7 8 7 6 7 6 7 8 9 5 3 3 4 3 2 3 6 9 2 2 1 1 6 3 2 3 6 13 7 4 7 7 5 8 9 14 3 3 5 3 3 6 4 6 8 7 10 13 12 11 11 11 10 11 11 13
22 22 22 21 21 22 21 21 21 20 20 16 6 8 10 11 9 10 12 9 9 7 6 5 1 1 5 3 2 5 6 9 8 9 8 7 9 9 9 9 10 8 4 2 3 3 3 6 2 4 3 4 3 5 2 6 7 14 14 3 8 9 10 13 15 13 8 8 3 4 2 4 7 8 8 9 8 11 12 11 11 11 11 11 14 12 12
23 22 22 22 22 22 22 21 21 21 20 9 5 3 5 5 11 12 12 11 9 4 5 4 7 5 2 1 5 4 6 9 9 9 9 8 9 10 10 10 8 8 6 5 5 8 6 3 3 1 1 3 4 2 3 4 9 13 5 8 8 0 4 8 9 3 1 4 4 6 11 11 9 8 9 8 8 10 11 11 11 11 12 12 13 12 12
22 22 22 23 23 23 22 22 22 21 15 10 6 4 4 9 4 13 18 14 11 7 2 2 8 2 3 2 2 10 11 9 10 10 12 10 9 9 7 5 4 7 6 4 3 6 2 4 4 3 4 6 5 3 4 8 12 11 2 9 7 5 6 7 8 7 3 4 3 9 9 7 6 8 12 10 8 9 11 11 12 12 12 14 14 12 11
2 7 15 21 23 23 23 23 23 20 13 12 13 9 3 2 1 9 18 14 11 5 4 5 4 2 3 2 2 2 4 7 4 2 1 4 6 5 3 8 5 6 5 6 4 1 5 6 5 4 6 7 7 3 4 10 14 15 7 8 7 6 6 5 5 6 5 2 2 6 8 9 8 6 5 7 8 10 12 12 11 11 12 11 11 11 12
11 11 11 10 6 4 15 22 24 18 12 12 6 9 5 5 2 2 12 11 7 2 2 2 4 1 3 5 2 2 2 4 2 4 4 3 6 4 2 2 2 0 2 3 4 6 3 5 3 6 5 4 3 3 6 13 19 2 10 6 4 5 6 5 3 5 7 7 2 4 3 5 7 9 10 9 10 9 9 10 10 9 10 11 11 11 10
12 11 10 9 7 5 5 1 6 19 12 4 6 8 1 4 3 6 9 7 2 1 2 2 2 6 5 1 1 2 6 6 4 6 2 1 3 4 4 4 4 5 4 9 3 2 2 2 5 3 4 6 3 3 9 15 2 6 7 6 5 4 5 7 6 7 8 9 10 11 11 11 10 9 10 10 10 9 9 7 8 11 10 10 10 9 8
12 11 10 8 7 7 6 4 4 4 5 4 2 3 3 2 2 12 13 6 5 2 2 3 2 2 3 2 4 3 4 5 3 5 6 2 3 5 3 4 3 6 5 5 1 6 7 6 6 5 7 3 5 8 12 8 4 4 5 5 6 3 2 6 6 5 5 7 9 8 9 9 10 9 9 9 9 8 10 9 8 9 9 9 8 7 7
13 11 9 8 8 5 2 4 3 2 2 0 1 3 7 6 2 6 3 3 2 4 3 3 3 7 6 8 5 2 4 1 1 3 1 2 2 1 2 2 4 5 2 3 5 4 6 5 5 6 7 6 10 8 1 5 5 7 6 6 5 5 3 4 4 6 6 8 10 10 9 9 11 10 9 8 8 8 9 9 8 9 9 7 7 6 6
11 9 6 5 3 3 3 0 2 2 1 1 5 8 7 2 3 3 2 1 2 1 4 3 4 7 8 4 1 2 4 5 3 3 2 3 4 1 3 2 6 1 3 3 5 7 5 6 5 4 7 11 5 5 4 5 6 5 6 5 5 5 4 2 2 5 10 8 8 8 9 9 9 7 8 8 7 7 8 9 8 7 7 7 6 6 6
8 8 5 3 3 2 1 1 2 4 8 7 5 1 5 5 2 3 3 2 2 1 2 2 7 2 2 4 6 3 4 4 2 5 2 2 3 2 2 3 4 3 6 5 7 5 4 4 6 10 6 3 4 5 6 5 6 6 6 5 5 5 5 4 2 7 10 8 6 7 7 8 8 6 7 7 7 7 7 7 7 7 7 6 6 5 5
6 2 4 2 2 2 1 1 3 8 3 2 2 3 1 0 2 1 3 2 1 3 2 6 7 5 4 3 3 0 6 5 3 2 5 5 4 4 2 4 5 3 4 3 6 10 4 5 4 5 7 5 4 4 6 6 7 6 6 6 6 5 5 6 8 3 3 5 6 5 5 7 9 8 7 7 7 7 7 6 6 7 7 6 5 5 5
2 4 1 1 1 2 2 3 6 2 1 2 2 1 2 2 4 3 2 2 2 2 3 7 4 6 8 10 8 7 2 4 6 5 5 2 1 4 3 3 4 3 4 6 5 6 6 5 5 4 6 4 4 6 6 6 7 6 6 6 6 7 8 8 8 8 10 10 9 9 8 8 7 7 6 6 6 6 6 6 6 5 5 6 6 5 4
2 0 1 2 1 1 2 4 3 2 1 2 0 1 1 2 2 2 1 4 4 3 1 3 1 3 4 7 6 9 2 4 0 3 2 4 1 4 3 4 2 5 4 5 2 3 3 3 5 9 4 4 6 6 8 6 7 7 6 6 6 6 8 8 9 8 9 8 8 8 8 8 8 7 7 7 7 6 6 5 5 5 5 5 6 5 4
2 1 1 2 1 1 1 2 1 1 2 1 2 3 2 2 1 0 2 5 4 1 2 2 3 2 5 7 6 3 2 1 2 2 2 5 3 4 3 1 1 4 4 2 4 1 3 6 5 6 3 4 6 6 7 7 6 6 6 6 6 7 7 8 8 9 8 8 7 8 7 8 8 7 6 5 5 6 5 5 4 5 4 4 5 5 4
5 4 2 1 1 1 1 2 3 2 3 2 2 2 3 4 5 3 2 1 1 1 3 3 2 1 2 1 2 1 4 0 2 2 3 4 1 1 3 3 2 5 3 3 2 3 6 5 7 2 5 4 4 5 5 6 6 7 6 6 6 6 7 8 9 9 8 8 8 7 7 7 7 6 5 5 5 6 5 5 4 4 4 4 5 5 5
0 1 2 2 0 5 2 2 3 5 3 2 3 7 4 3 4 2 2 2 1 2 3 1 2 2 2 1 4 1 1 2 1 1 3 1 2 3 3 5 4 1 3 3 2 6 5 1 1 4 5 5 3 5 5 6 5 6 6 7 7 7 8 8 8 8 8 7 7 6 7 7 6 6 6 6 4 4 4 4 4 6 4 5 5 5 5
2 2 0 2 1 5 1 2 2 5 6 4 3 3 3 4 3 1 3 2 4 1 2 4 1 2 1 2 3 2 2 3 2 4 4 2 1 3 3 4 0 2 2 3 1 1 2 3 3 6 5 6 6 5 5 5 5 6 6 7 7 6 6 7 7 6 6 6 6 5 5 5 5 5 5 5 6 4 5 4 4 4 4 5 4 3 5
1 2 1 2 2 4 3 4 0 1 4 2 1 1 0 1 2 3 1 2 1 2 3 2 2 1 1 3 2 2 2 1 1 2 1 1 1 4 1 2 2 0 3 3 4 6 2 2 4 5 7 7 7 7 6 5 5 5 6 5 6 6 6 6 6 6 5 5 5 5 5 5 4 4 4 5 5 4 5 5 5 4 5 5 4 4 4
2 1 2 2 1 5 0 3 2 1 1 3 1 2 4 4 5 3 2 2 3 4 2 2 1 1 1 2 2 3 1 1 2 4 1 1 3 1 2 1 2 3 3 4 3 1 1 2 4 5 7 7 7 6 6 5 5 6 6 6 6 6 6 6 6 6 5 5 5 5 4 4 4 4 4 4 4 4 4 4 4 4 5 3 3 4 4
2 4 1 3 3 2 1 3 1 2 2 2 3 3 2 2 3 5 4 3 2 3 5 3 4 3 2 5 1 2 3 1 2 4 2 2 1 1 1 3 3 1 1 1 1 3 3 3 6 7 7 7 7 8 6 6 6 6 6 6 6 6 6 6 5 5 6 5 4 4 4 4 3 3 3 3 2 4 4 4 2 4 4 3 3 3 3
2 0 3 4 1 2 2 3 3 3 2 4 4 4 3 5 5 3 2 2 4 3 3 2 2 1 3 3 3 2 3 4 4 5 1 2 1 4 2 4 3 3 3 3 1 2 2 3 5 7 8 8 7 6 6 6 6 6 6 6 5 6 5 5 5 5 5 4 4 4 3 3 3 1 3 3 1 2 4 3 3 4 4 2 2 2 3
2 1 2 2 1 2 3 1 6 2 1 4 3 4 4 5 4 5 2 3 5 2 2 1 2 2 3 1 2 2 2 3 0 2 3 2 2 1 0 3 2 1 1 1 3 2 3 4 6 8 7 8 7 6 6 6 6 6 5 6 5 5 5 6 5 5 4 4 4 3 3 2 2 2 1 2 2 3 3 2 4 5 4 4 2 2 4
1 1 2 3 3 4 1 3 1 3 3 3 3 3 3 3 3 4 5 2 4 2 3 2 1 3 2 2 0 0 5 0 4 2 2 2 2 3 0 1 3 2 4 1 2 2 4 3 4 4 6 6 5 6 5 6 6 6 5 5 5 5 5 6 5 4 3 3 3 4 2 2 2 2 2 2 2 2 2 1 3 3 2 2 3 3 3
2 2 2 1 3 3 4 4 3 4 2 2 4 1 3 5 2 2 3 3 4 5 3 3 3 1 1 1 3 0 2 4 1 2 3 3 1 4 2 1 1 2 1 2 2 3 4 3 4 5 4 5 5 5 6 7 7 6 6 5 5 4 5 4 4 3 3 2 2 3 2 1 3 2 2 2 2 1 1 1 4 3 3 3 4 5 5
Wind_Direction
347 348 350 352 354 356 356 357 358 358 356 354 10 319 358 52 212 174 129 204 234 62 76 262 53 60 300 266 340 126 333 64 332 335 264 328 275 266 48 5 56 340 123 262 68 18 187 146 255 104 102 186 316 304 353 324 266 85 115 50 331 59 123 315 257 99 126 163 187 261 332 289 4 297 267 10 300 165 161 158 178 186 182 147 61 221 261
345 347 349 351 352 354 354 355 355 357 10 352 308 285 72 342 4 358 191 197 246 102 218 145 105 118 20 331 95 315 220 337 169 183 276 315 305 300 140 273 18 150 335 30 148 332 130 350 81 355 339 86 319 358 333 8 69 56 193 126 289 88 273 123 295 310 330 352 356 339 280 39 231 253 195 210 111 77 145 81 77 336 211 185 143 240 267
345 346 347 349 350 350 351 351 351 354 358 15 317 6 264 147 254 20 306 59 32 158 182 127 125 140 132 120 32 184 252 343 344 299 119 280 353 295 48 202 147 71 94 109 97 2 77 274 346 162 56 107 331 39 342 340 75 45 43 358 328 104 267 135 148 349 334 287 275 189 348 240 214 163 89 206 151 157 103 274 104 162 270 169 193 256 250
343 344 346 347 347 347 348 348 348 349 353 356 271 290 7 102 102 300 359 11 47 56 199 51 119 127 144 128 224 167 128 226 171 260 158 321 236 75 160 246 295 114 81 54 33 24 329 101 301 349 128 155 79 330 346 19 52 72 42 9 171 316 342 197 203 189 212 198 188 294 106 82 178 240 164 208 240 228 201 72 189 208 212 194 232 228 284
338 342 343 345 344 344 344 344 344 346 348 6 3 299 104 321 101 100 305 1 38 75 14 20 114 167 192 186 150 159 135 160 159 236 66 17 68 189 234 209 123 245 97 163 83 249 332 28 80 247 115 47 59 310 324 68 83 145 345 246 64 41 311 245 218 247 245 255 271 204 173 233 241 183 233 203 182 188 183 180 221 172 220 274 218 233 242
333 336 338 342 343 342 343 342 342 341 343 343 237 328 353 99 251 132 201 148 220 155 345 38 120 292 100 161 165 145 148 166 162 287 57 195 241 88 299 68 260 179 166 150 174 52 353 106 226 351 48 110 263 67 334 339 148 126 86 315 116 157 208 303 88 269 273 277 272 183 179 210 223 225 210 191 203 180 193 224 226 215 183 247 249 342 302
324 332 337 339 341 341 341 341 339 340 334 342 205 260 301 71 118 113 186 124 197 134 232 299 135 82 62 139 138 154 162 183 171 158 86 342 326 187 253 255 219 223 272 127 129 162 202 285 253 187 172 173 150 160 20 284 111 316 119 30 254 93 255 210 70 279 287 276 263 252 225 248 246 244 232 220 193 211 208 229 229 221 245 259 275 280 278
318 326 331 336 338 340 340 340 340 340 335 325 113 33 119 199 151 261 285 100 141 176 239 243 332 116 320 96 222 169 179 188 189 261 128 116 306 124 181 261 46 193 188 189 154 220 199 193 271 215 129 355 217 211 192 153 345 243 184 138 291 118 278 120 155 345 283 306 32 57 134 177 264 263 241 224 226 225 221 235 250 237 274 261 263 280 280
308 317 327 332 335 338 339 340 342 340 343 51 77 298 2 348 8 212 126 82 205 135 284 8 12 64 341 83 235 89 192 224 163 178 182 147 177 182 179 170 119 14 181 210 236 30 62 76 126 188 164 208 215 153 291 126 139 193 170 174 308 116 255 77 86 357 296 328 13 223 231 223 238 262 255 234 215 228 222 212 218 174 225 242 283 272 256
298 309 320 327 330 335 337 342 342 345 333 205 331 298 252 349 151 217 87 102 229 143 65 353 64 353 233 113 173 139 173 46 118 87 72 49 47 174 206 220 121 95 35 233 213 22 11 95 112 77 108 116 102 97 106 128 154 165 179 153 137 190 194 201 172 264 254 282 263 269 312 327 298 261 240 227 212 212 228 240 219 212 200 199 216 237 232
285 297 308 319 326 328 337 340 342 351 356 41 5 348 271 279 344 315 32 103 306 282 212 186 139 231 140 96 123 8 119 328 332 150 263 107 348 359 328 135 166 227 185 197 243 271 340 77 55 45 65 64 60 33 71 59 59 139 160 144 233 155 215 236 126 185 243 239 266 221 13 311 249 221 187 149 178 201 212 233 221 226 166 215 206 236 270
274 286 296 309 314 322 332 336 342 345 4 313 266 336 32 337 293 282 96 148 250 329 247 218 191 193 170 181 112 168 166 185 154 77 141 139 79 284 254 258 96 249 252 264 267 249 288 12 63 65 61 59 58 45 45 71 13 12 31 135 162 166 142 243 186 172 276 332 351 344 276 239 260 306 249 245 205 179 201 234 245 232 219 241 257 261 262
264 270 277 291 300 311 321 330 335 338 342 337 332 34 45 50 294 243 175 121 232 165 167 260 351 116 112 119 112 71 89 72 99 90 76 121 176 81 18 171 184 181 300 321 348 16 100 142 53 78 98 52 54 59 36 27 4 337 24 33 126 174 150 200 292 183 332 32 158 303 236 272 280 249 220 119 71 72 120 290 264 245 231 222 234 246 252
255 256 264 268 282 295 306 319 328 335 338 347 35 29 44 340 357 15 15 120 254 155 174 69 143 152 148 203 135 133 122 113 87 212 125 320 113 128 93 42 109 301 330 352 23 143 47 64 308 324 292 38 6 310 281 32 21 12 352 349 12 123 218 148 267 145 198 208 190 235 319 317 301 288 236 164 187 181 157 216 281 248 242 196 221 243 250
247 243 242 243 253 274 283 295 306 320 333 349 323 234 37 38 27 313 289 100 234 222 146 206 216 193 159 161 142 127 175 142 141 155 359 356 70 42 8 49 199 228 329 75 159 163 169 74 13 358 297 65 263 258 64 337 295 18 322 311 341 8 166 248 125 266 169 241 305 322 315 250 279 232 271 349 165 132 169 111 282 259 260 234 184 224 234
239 238 232 235 237 246 255 264 274 301 316 330 290 355 109 115 273 231 307 141 122 294 248 218 117 124 143 154 197 165 179 163 191 118 114 115 101 139 116 134 202 316 260 64 220 129 197 127 225 166 230 219 224 57 271 50 338 285 335 342 34 334 110 292 140 262 67 169 203 227 208 243 208 257 240 172 160 133 143 28 304 273 273 267 161 208 238
233 234 231 233 232 234 238 240 261 267 272 315 332 309 85 53 14 12 347 356 109 221 277 70 91 106 96 42 35 297 237 164 161 155 217 210 166 115 12 257 176 220 323 88 206 96 135 218 262 215 288 140 115 226 148 86 219 326 350 31 82 112 309 67 341 250 197 158 240 246 207 246 267 234 245 205 139 140 78 8 285 284 359 220 128 182 222
229 230 223 222 222 234 241 236 237 258 285 309 307 322 20 98 24 315 259 215 137 284 206 278 136 137 174 177 174 220 91 42 54 37 81 140 126 178 151 167 87 261 182 88 164 142 199 200 196 209 230 240 147 67 241 168 186 187 188 163 135 139 250 192 220 195 227 217 261 311 286 274 219 205 182 157 171 111 11 229 240 244 201 233 144 163 229
227 222 220 213 213 221 231 238 243 246 262 288 303 281 217 54 98 97 303 315 137 229 316 14 34 41 195 46 96 156 161 165 164 133 134 94 232 150 155 206 161 97 134 184 102 187 170 238 134 172 209 263 112 212 203 133 212 61 118 104 75 260 137 248 96 224 211 204 221 244 268 234 211 320 150 182 111 202 205 234 211 105 120 239 201 272 261
226 224 221 215 212 218 224 229 226 221 230 227 249 304 71 142 83 25 21 277 202 272 216 213 167 206 192 162 142 165 34 315 272 141 166 174 263 125 76 40 277 103 79 358 171 241 174 215 199 160 251 184 229 161 18 244 142 164 183 210 170 189 144 205 187 202 181 211 235 332 296 290 151 122 70 122 149 232 213 303 341 116 95 22 326 252 274
224 223 224 221 216 213 213 212 216 218 209 193 199 286 277 110 77 102 315 352 332 322 284 39 306 285 180 222 225 187 168 187 174 171 199 130 176 143 143 212 183 159 186 166 183 220 188 231 178 190 210 158 233 73 227 204 273 251 148 183 204 187 138 179 216 181 162 173 180 204 214 218 163 146 180 213 210 226 78 57 318 349 4 327 314 324 10
228 224 222 221 219 216 211 209 209 212 209 186 184 184 263 116 93 104 271 299 254 229 251 285 235 241 257 259 248 261 243 245 265 104 133 126 207 196 160 113 150 180 174 155 114 311 310 217 104 173 229 256 41 207 220 273 258 241 333 94 302 192 190 174 187 204 175 200 215 239 229 182 195 199 220 213 228 250 322 350 284 297 294 331 13 357 25
225 224 226 225 220 215 214 215 210 209 205 185 179 177 225 150 106 172 277 268 280 282 262 258 221 258 259 244 222 225 236 254 187 179 182 120 200 259 206 162 210 204 287 143 182 176 186 139 220 179 254 195 181 227 263 200 269 165 192 220 220 293 205 75 42 245 268 263 230 175 157 164 217 240 239 263 322 357 13 319 310 309 1 37 48 40 44
224 222 221 223 227 225 218 214 215 211 201 188 183 189 221 216 141 147 86 66 70 320 292 231 211 261 231 263 255 200 204 222 209 203 187 158 155 225 238 250 135 40 264 222 174 139 203 137 213 107 210 239 110 196 209 254 229 182 233 269 220 234 163 169 217 256 346 271 254 203 236 227 228 242 301 288 276 283 306 335 6 41 47 48 45 54 46
225 225 222 219 219 220 224 224 219 213 203 193 195 217 227 62 178 170 146 189 218 151 258 321 214 224 208 135 124 123 213 211 198 198 201 203 204 190 203 210 173 176 216 212 131 77 57 175 214 170 217 255 131 251 171 214 278 147 232 237 126 298 184 188 235 235 212 245 180 98 313 278 266 78 298 347 13 33 44 54 52 68 65 59 48 49 48
227 226 224 222 221 220 219 221 220 217 207 198 192 193 200 205 187 192 111 59 100 157 223 252 267 4 97 165 235 215 163 177 188 197 204 210 207 222 183 92 358 42 97 96 115 170 189 206 208 207 198 276 155 229 240 196 237 243 219 241 165 178 101 216 192 234 257 279 285 286 284 279 305 30 40 21 12 46 50 51 50 49 67 67 59 52 52
228 227 227 224 222 220 219 218 216 217 212 207 206 208 210 219 174 183 179 171 150 284 213 256 263 271 174 228 221 78 144 170 180 191 208 210 212 216 184 167 144 95 128 93 34 147 324 229 196 228 173 241 137 222 288 299 246 261 260 251 108 109 225 202 32 261 258 253 263 170 261 286 67 23 23 25 31 60 63 57 54 46 45 59 71 62 54
230 229 228 226 225 222 219 216 214 213 215 212 210 212 214 218 196 197 201 186 182 232 246 223 241 245 156 254 221 189 177 177 181 187 195 208 201 200 207 211 191 128 163 146 243 166 199 214 233 206 244 261 24 270 188 258 300 274 254 238 136 197 221 167 221 238 264 314 23 342 309 72 78 45 15 37 39 62 62 58 62 59 58 57 69 71 63
231 231 230 228 227 225 223 217 213 211 210 210 197 217 232 226 215 200 204 204 212 239 263 275 326 89 245 250 134 197 184 176 184 189 196 191 185 195 201 205 206 202 169 183 213 185 194 229 144 174 188 211 135 255 196 234 225 246 249 157 188 225 219 227 240 250 268 61 324 330 19 91 90 56 43 40 40 67 71 66 65 67 66 66 69 68 72
235 232 231 229 228 226 223 220 215 212 203 185 142 222 243 257 204 197 194 198 203 215 245 247 257 257 3 78 227 171 178 187 193 191 195 186 190 195 198 195 212 203 190 195 179 231 218 232 227 212 206 153 172 241 240 232 243 254 243 186 207 195 35 41 32 63 19 6 357 47 93 98 89 69 55 49 50 67 75 66 66 69 67 67 70 69 63
237 234 233 232 230 227 223 221 218 211 192 184 169 206 218 255 202 181 184 189 188 190 217 220 246 6 301 245 158 190 180 172 188 198 200 198 195 195 199 187 230 177 205 220 208 234 179 228 170 235 200 184 186 230 236 261 263 268 335 74 58 58 60 57 54 64 62 344 73 86 73 73 113 95 61 47 45 66 77 76 68 69 73 71 68 66 64
40 250 244 239 234 229 225 223 219 208 199 185 197 209 191 197 106 184 181 180 168 176 164 242 272 236 246 254 218 316 165 174 153 113 166 160 200 165 190 191 206 191 191 207 227 127 236 228 216 208 178 203 182 253 221 249 256 250 107 71 58 58 79 74 57 50 44 348 186 136 84 68 46 78 93 60 62 70 79 81 79 77 75 75 74 70 66
46 52 60 61 52 246 235 226 219 209 211 210 59 68 93 47 216 189 174 155 167 208 160 185 223 222 250 232 71 299 130 70 93 150 216 181 188 136 193 168 102 20 242 129 227 213 212 184 184 220 224 138 177 229 237 236 238 61 77 89 72 63 89 89 83 49 47 25 50 142 144 118 99 84 85 77 66 67 75 83 85 82 76 71 67 63 59
38 38 38 40 39 38 38 2 242 222 228 212 238 219 84 43 119 163 155 136 122 146 123 169 206 225 245 92 71 209 134 155 183 161 209 172 154 141 184 127 194 176 233 198 239 176 235 106 191 198 82 210 169 121 239 244 310 75 79 71 56 42 70 75 55 50 52 58 62 77 92 103 101 93 83 75 70 64 67 69 79 80 73 69 64 60 59
29 28 24 16 15 24 46 116 148 175 197 233 343 357 347 339 176 161 156 146 130 232 158 250 155 229 279 251 223 221 134 100 194 195 176 203 99 153 159 135 195 204 240 100 78 228 216 201 140 167 211 143 163 225 240 233 100 69 67 60 43 49 37 70 56 82 63 69 78 89 98 103 97 84 80 79 75 70 69 63 60 77 78 67 65 56 51
20 18 15 16 16 5 30 27 46 67 61 39 199 355 322 311 147 157 134 66 129 151 180 212 202 224 214 242 229 242 112 109 167 71 148 123 15 241 119 161 210 225 109 176 222 187 215 159 148 226 175 200 211 225 253 61 102 73 69 68 40 61 53 77 81 82 90 90 87 91 91 88 93 101 97 90 84 74 76 75 61 65 78 75 60 53 47
23 14 16 28 23 52 34 134 329 53 135 329 279 285 288 83 9 34 8 3 315 116 163 172 223 224 199 242 43 240 151 188 155 96 177 152 183 125 117 226 217 172 115 210 223 212 211 157 207 221 196 224 220 65 79 51 72 79 73 63 58 46 36 27 301 130 101 98 100 98 98 104 99 98 100 93 89 87 75 67 65 63 58 58 50 45 31
24 27 49 27 43 55 310 352 33 314 317 296 263 46 358 28 52 350 356 14 275 135 205 189 239 210 85 147 231 198 128 229 145 143 187 169 119 246 172 192 217 193 223 220 232 142 120 184 204 223 227 64 87 80 82 87 85 80 72 68 46 48 30 14 312 144 123 117 108 111 108 105 103 97 98 95 86 78 78 84 76 68 59 48 40 36 30
31 44 46 21 89 206 194 230 8 324 288 279 44 69 318 202 106 224 208 190 236 229 203 214 226 183 171 193 248 174 154 178 119 192 188 215 132 268 157 189 257 208 264 222 244 148 199 216 204 223 235 158 134 118 111 98 96 80 78 68 60 48 48 40 31 70 86 84 113 112 119 128 123 113 103 98 89 85 83 76 73 69 66 46 36 24 29
10 52 75 69 147 226 328 293 316 311 67 80 314 120 168 216 147 232 168 99 258 229 197 237 195 188 181 201 201 243 183 143 186 198 195 277 252 187 241 203 246 232 224 209 226 166 150 190 191 197 224 148 114 117 115 110 97 95 82 81 78 69 70 76 79 80 87 85 83 79 70 71 78 94 95 97 98 93 75 69 65 68 77 64 36 22 24
359 35 32 172 242 48 266 299 347 47 61 106 80 347 185 269 217 193 195 197 217 228 173 180 203 154 215 198 209 225 285 79 173 129 121 199 238 90 185 214 218 230 219 216 215 148 148 220 198 216 205 85 120 118 113 107 106 95 92 83 90 93 84 83 89 98 100 97 90 81 79 79 78 78 78 84 91 93 88 77 64 55 61 66 48 15 12
323 62 261 37 279 252 322 24 89 89 8 277 136 249 212 213 237 66 223 200 215 166 292 185 218 192 199 192 201 164 274 166 128 105 172 234 226 193 233 212 335 232 233 192 110 65 167 217 218 226 156 148 110 115 112 112 114 102 89 87 77 84 91 87 77 60 72 88 95 91 86 82 79 75 81 88 90 96 93 86 67 41 49 71 51 22 5
47 36 348 33 298 338 227 54 290 127 139 202 123 286 253 190 232 181 243 189 274 52 252 39 193 310 322 49 17 254 178 228 110 221 195 219 266 135 171 233 202 230 196 67 95 161 214 218 226 217 113 136 135 109 111 106 100 96 87 70 51 58 76 77 70 69 60 60 61 69 80 87 84 82 83 93 90 80 90 86 87 60 12 67 39 15 357
13 8 16 291 77 297 169 269 236 66 341 243 172 206 208 223 272 154 116 260 107 57 323 44 311 41 218 304 149 228 75 328 154 133 250 235 197 211 224 222 214 214 61 44 180 208 207 232 261 117 140 115 121 119 118 117 114 100 90 74 65 58 66 74 78 71 63 59 64 65 66 66 70 61 55 40 67 110 72 55 61 61 42 63 28 4 342
66 339 157 353 2 254 92 314 254 128 193 208 177 207 238 202 215 127 159 303 54 194 25 48 315 3 172 299 65 323 218 246 291 202 237 193 186 262 203 244 252 32 171 216 203 34 354 268 124 110 149 145 140 129 118 109 121 116 107 94 84 75 70 73 71 74 67 68 68 69 60 60 58 57 48 50 21 56 110 62 25 44 43 52 8 358 335
126 189 241 95 309 284 151 229 212 47 278 219 197 241 104 39 69 141 322 51 47 348 66 316 19 5 341 294 116 255 20 74 255 250 188 306 199 254 238 63 26 87 280 243 205 211 206 155 151 179 155 140 138 133 128 124 116 126 116 103 99 87 80 75 72 71 69 61 54 62 59 55 55 54 48 28 24 35 62 55 21 63 69 44 348 345 336
41 319 111 203 247 276 186 153 270 105 329 37 342 38 84 77 66 76 14 19 28 340 30 304 111 201 125 301 55 339 234 209 248 261 310 43 233 268 360 79 262 240 251 254 267 267 224 144 115 129 124 127 125 117 111 113 119 114 116 114 106 102 94 89 83 80 72 70 69 63 60 55 46 37 58 42 1 17 59 51 27 70 80 49 346 336 342
137 246 156 104 219 225 135 256 84 48 339 65 6 52 54 98 84 57 38 34 312 356 23 347 22 321 359 269 145 187 275 298 255 273 224 227 319 334 344 245 224 268 288 164 286 33 77 83 137 130 135 130 127 128 126 124 123 120 118 117 113 107 103 98 90 81 83 81 68 68 58 50 53 50 45 23 30 329 56 50 29 82 58 49 351 353 339
179 20 133 209 236 58 190 286 62 63 24 48 10 39 55 72 77 76 37 17 14 12 347 73 253 309 294 254 88 299 268 258 234 259 214 80 142 230 235 251 214 234 349 67 181 11 122 82 105 108 115 125 133 129 129 127 129 127 125 115 110 108 103 93 88 90 86 79 84 78 63 40 66 56 60 353 5 318 354 360 88 63 31 32 17 351 332
120 328 218 102 308 299 209 10 75 85 92 58 12 49 49 53 43 7 331 43 323 350 315 358 264 110 261 340 16 279 241 297 316 323 355 307 222 260 64 285 294 101 287 18 136 165 109 120 127 120 131 125 125 118 116 122 119 106 105 107 99 101 95 104 92 82 84 89 88 84 74 78 69 47 22 333 333 326 318 312 77 46 36 342 5 360 322
248 142 243 288 195 237 118 109 228 143 94 79 82 19 39 22 2 1 339 73 325 8 17 58 294 52 324 17 261 349 277 147 47 339 240 276 319 73 315 303 333 93 167 34 70 63 118 120 125 128 124 115 107 106 100 99 98 98 91 88 91 97 88 92 91 89 80 74 75 90 80 61 37 57 307 347 4 292 314 328 86 65 21 343 345 313 308
168 114 243 197 108 112 113 154 57 98 126 75 78 262 79 37 333 71 313 67 1 54 8 321 62 315 326 171 249 353 331 37 202 221 347 305 353 117 260 8 137 16 123 148 109 96 87 84 91 108 109 109 107 96 104 106 104 98 94 97 101 106 107 94 88 88 96 78 47 76 95 354 63 9 309 21 315 35 66 320 331 342 357 339 305 302 295